[[{"header":{"parameterUnit":"m.s-1","parameterCategory":1,"la1":30.2991,"la2":30.254,"lo1":-89.0895,"lo2":-89.0444,"dy":0.0017,"dx":0.0017,"nx":28,"ny":28,"refTime":"2024-07-05T21:00:00:Z","depth":0,"parameterNumber":2,"parameterNumberName":"U-component_of_WINDS"},"data":[0,0,0,0,0,0,0,0,0,0,0,0,0,0,0,0,0,0,0,0,0,0,0,0,0,0,0,0,0,0,0,0,0,0,0,0,0,0,0,0,0,0,0,0,0,0,0,0,0,0,0,0,0,0,0,0,0,0,2.8476,2.8478,0,2.8686,2.8688,2.8691,2.8704,2.8701,2.8699,2.8697,2.8916,2.8924,2.8932,0,0,0,0,0,0,0,0,0,0,0,0,0,2.8089,2.8096,2.8476,2.8478,2.8481,2.8686,2.8688,2.8691,2.8704,2.8701,2.8698,2.8696,2.8914,2.8923,2.8933,0,0,0,0,0,0,0,0,0,0,0,0,0,2.8274,2.8098,2.8475,2.8512,2.8517,2.8685,2.8689,2.8692,2.8705,2.8701,2.8698,2.8694,2.891,2.8922,2.8934,2.9081,0,0,2.8971,2.8976,0,0,0,0,0,0,0,0,2.8263,2.8288,2.8504,2.851,2.8516,2.8665,2.8633,2.8823,2.8706,2.8634,2.8697,2.8693,2.8836,2.8854,2.8901,2.9091,2.91,2.8972,2.898,2.8985,2.8988,0,0,0,0,0,0,0,2.8251,2.8279,2.8559,2.8507,2.8515,2.8519,2.8541,2.8669,2.8753,2.864,2.8641,2.8666,2.8838,2.889,2.8907,2.9104,2.8972,2.8983,2.899,2.8995,2.9423,2.9427,0,0,0,0,0,0,2.823,2.8268,2.8552,2.8565,2.8378,2.8529,2.8554,2.8621,2.8751,2.8767,2.8669,2.8666,2.8871,2.8892,2.8914,2.9093,2.8985,2.8996,2.9003,2.9419,2.9424,2.9428,0,0,0,0,0,0,2.8222,2.8255,2.8544,2.8417,2.8454,2.8539,2.8615,2.8627,2.8678,2.8773,2.8788,2.8705,2.8869,2.8897,2.9039,2.9101,2.9002,2.9013,2.9414,2.942,2.9426,2.9453,0,0,0,0,0,0,2.8211,2.8252,2.8308,2.8418,2.8461,2.8664,2.8618,2.8634,2.8698,2.8696,2.8811,2.8827,2.8868,2.902,2.9051,2.9116,2.9022,2.9409,2.9417,2.9424,2.9447,2.9459,2.947,0,0,0,0,0,2.8197,2.8309,2.8311,2.8345,2.8533,2.8667,2.8692,2.8736,2.8703,2.876,2.8821,2.8823,2.9089,2.9035,2.9069,2.9139,2.9405,2.9414,2.9423,2.9442,2.9457,2.947,0,0,0,0,0,0,2.8206,2.8324,2.8328,2.8479,2.8563,2.8669,2.8743,2.8751,2.8847,2.8841,2.8893,2.8919,2.9058,2.9113,2.905,2.9287,2.9244,2.926,2.9246,2.9261,2.9272,2.9256,2.9032,0,0,0,0,0,2.8225,2.8323,2.8422,2.8546,2.8587,2.8658,2.8718,2.8744,2.8834,2.887,2.8942,2.903,2.9133,2.92,2.9301,2.9455,2.948,2.952,2.9531,2.954,2.9554,2.9638,2.9657,2.9458,2.9458,2.9458,0,0,2.8267,2.8343,2.8403,2.8549,2.8618,2.8719,2.8688,2.8797,2.8873,2.8888,2.9024,2.908,2.9182,2.9329,2.9398,2.9379,2.9614,2.9552,2.9558,2.9568,2.965,2.9668,2.9685,2.9465,2.9464,2.9463,0,0,2.8393,2.8462,2.8571,2.864,2.8742,2.8788,2.8814,2.892,2.8956,2.9094,2.9107,2.9199,2.9376,2.9447,2.9507,2.9659,2.9664,2.9691,2.9751,2.9832,2.9848,2.9862,2.9915,2.9934,2.9704,2.9704,2.9704,0,2.8432,2.8584,2.8627,2.8735,2.8799,2.8815,2.8927,2.8992,2.9123,2.9167,2.9143,2.9365,2.9435,2.9599,2.9635,2.9683,2.9715,2.9678,2.9842,2.9857,2.987,2.9922,2.9942,2.9706,2.9706,2.9706,2.9706,0,2.8627,2.8732,2.8808,2.8932,2.9005,2.9114,2.9174,2.9243,2.9262,2.931,2.945,2.9534,2.9651,2.9692,2.9714,2.986,2.9844,2.9831,2.9788,2.9891,2.994,2.996,2.971,2.9709,2.9708,2.9708,0,0,2.8766,2.891,2.8938,2.8993,2.9107,2.919,2.93,2.9412,2.947,2.956,2.9653,2.9802,2.9789,2.9857,2.9886,2.9958,3.0071,2.9936,2.9939,2.9957,3.0236,3.0245,3.0267,3.0075,3.0079,3.0083,3.0227,0,2.8905,2.91,2.914,2.9309,2.9406,2.9422,2.9518,2.9598,2.9646,2.9736,2.979,2.9894,2.987,2.9911,2.9982,3.0042,3.0128,3.0033,3.0163,3.0168,3.0136,3.0293,3.0303,3.0436,3.0247,3.025,3.0253,0,2.9094,2.9185,2.9362,2.9461,2.9504,2.9589,2.9695,2.9781,2.9872,2.9902,2.9976,2.9997,3.0113,3.0064,3.0224,3.0158,3.0214,3.0252,3.0258,3.0272,3.0216,3.031,3.0479,3.0499,3.0284,3.0281,3.0279,0,2.9176,2.9344,2.9472,2.9519,2.9638,2.9697,2.975,2.9838,2.9902,2.9995,3.0037,3.0143,3.0201,3.0282,3.0332,3.0292,3.0487,3.0443,3.0515,3.0514,3.0556,3.0553,3.0735,3.0593,3.0593,3.0592,3.0592,0,2.9327,2.9435,2.951,2.9588,2.9709,2.9755,2.9874,2.9927,3.0004,3.0093,3.0114,3.0198,3.0258,3.035,3.039,3.0515,3.0542,3.0569,3.0578,3.0567,3.0564,3.0604,3.0596,3.0598,3.0596,3.0595,3.0594,0,2.944,2.9495,2.9634,2.9735,2.9762,2.9847,2.9933,3.001,3.0058,3.017,3.0199,3.0274,3.0384,3.0441,3.0578,3.0605,3.0746,3.075,3.0714,3.0718,3.0786,3.0778,3.1001,3.1032,3.0869,3.0871,3.0872,0,2.9533,2.9615,2.9724,2.9784,2.9837,2.9934,2.9999,3.0047,3.0115,3.0224,3.0288,3.0397,3.0488,3.0662,3.0729,3.0834,3.0841,3.0912,3.0857,3.0842,3.0841,3.0835,3.0843,3.0921,3.0923,3.0924,3.0925,0,2.969,2.9712,2.9805,2.9906,2.9982,3.0065,3.0147,3.0196,3.0257,3.0332,3.0442,3.0512,3.0651,3.076,3.0869,3.0925,3.0936,3.0941,3.0964,3.0953,3.0928,3.0941,3.0739,3.0936,3.0935,3.0934,3.0934,3.0933,2.9796,2.9869,2.9956,3.0058,3.0124,3.0199,3.0275,3.0331,3.0424,3.0539,3.0562,3.0679,3.0768,3.0915,3.0974,3.1067,3.1052,3.1085,3.1093,3.11,3.1102,3.0913,3.1087,3.1087,3.1087,3.1087,3.1086,0,2.9954,3.001,3.0102,3.0215,3.0295,3.0295,3.0385,3.0452,3.0554,3.0635,3.0723,3.085,3.0955,3.103,3.1137,3.1197,3.1204,3.1223,3.1219,3.1231,3.111,3.1079,3.1215,3.1215,3.1215,3.1215,3.1215,3.1215,3.0045,3.0169,3.0201,3.0358,3.0414,3.0527,3.0578,3.0648,3.0712,3.0852,3.0938,3.0986,3.1064,3.1177,3.1273,3.1293,3.1331,3.135,3.1369,3.1254,3.124,3.1227,3.1199,3.1358,3.1358,3.1483,3.1485,3.1485]},{"header":{"parameterUnit":"m.s-1","parameterCategory":1,"la1":30.2991,"la2":30.254,"lo1":-89.0895,"lo2":-89.0444,"dy":0.0017,"dx":0.0017,"nx":28,"ny":28,"refTime":"2024-07-05T21:00:00:Z","depth":0,"parameterNumber":3,"parameterNumberName":"V-component_of_WINDS"},"data":[0,0,0,0,0,0,0,0,0,0,0,0,0,0,0,0,0,0,0,0,0,0,0,0,0,0,0,0,0,0,0,0,0,0,0,0,0,0,0,0,0,0,0,0,0,0,0,0,0,0,0,0,0,0,0,0,0,0,1.936,1.9362,0,1.9524,1.9526,1.9528,1.9567,1.9565,1.9564,1.9563,1.973,1.9736,1.9741,0,0,0,0,0,0,0,0,0,0,0,0,0,1.9079,1.9084,1.936,1.9362,1.9364,1.9524,1.9526,1.9528,1.9567,1.9565,1.9564,1.9563,1.9729,1.9735,1.9742,0,0,0,0,0,0,0,0,0,0,0,0,0,1.9218,1.9086,1.936,1.9403,1.9408,1.9523,1.9526,1.9529,1.9567,1.9565,1.9564,1.9562,1.9726,1.9734,1.9743,1.9826,0,0,1.9768,1.9771,0,0,0,0,0,0,0,0,1.921,1.9228,1.9394,1.94,1.9406,1.9523,1.9488,1.9629,1.9567,1.9507,1.9563,1.9561,1.9663,1.9676,1.971,1.9834,1.9841,1.9768,1.9773,1.9777,1.9779,0,0,0,0,0,0,0,1.92,1.9221,1.9425,1.9397,1.9404,1.9413,1.9431,1.9515,1.9592,1.9512,1.9515,1.9534,1.9666,1.9702,1.9715,1.9844,1.9768,1.9775,1.9781,1.9784,2.0044,2.0046,0,0,0,0,0,0,1.9183,1.9213,1.942,1.943,1.9302,1.942,1.944,1.9487,1.9591,1.9605,1.9535,1.9535,1.9689,1.9705,1.9721,1.9825,1.9777,1.9785,1.9789,2.0042,2.0044,2.0047,0,0,0,0,0,0,1.9177,1.9201,1.9413,1.9322,1.935,1.9426,1.9479,1.9491,1.9528,1.9609,1.9623,1.9559,1.9689,1.9709,1.98,1.9831,1.9788,1.9796,2.004,2.0043,2.0046,2.0035,0,0,0,0,0,0,1.9169,1.9199,1.9232,1.9323,1.9355,1.949,1.9481,1.9496,1.9542,1.9544,1.9635,1.9648,1.9689,1.9787,1.9808,1.9842,1.9802,2.0037,2.0041,2.0045,2.0033,2.0037,2.0041,0,0,0,0,0,1.9159,1.9222,1.9233,1.9258,1.9398,1.9491,1.951,1.9556,1.9545,1.9578,1.963,1.9645,1.9825,1.9796,1.982,1.9857,2.0035,2.004,2.0044,2.0031,2.0036,2.0041,0,0,0,0,0,0,1.9133,1.9235,1.9248,1.9343,1.9408,1.9498,1.9541,1.956,1.9629,1.9628,1.9682,1.9702,1.9789,1.9832,1.9798,1.9943,1.993,1.9939,1.9912,1.9917,1.9921,1.9909,1.9809,0,0,0,0,0,1.9138,1.9206,1.9292,1.9367,1.9399,1.9465,1.9507,1.9537,1.9607,1.9634,1.9693,1.9759,1.9831,1.9877,1.9947,2.0039,2.0059,2.0076,2.008,2.0083,2.0091,2.0142,2.015,2.0061,2.0061,2.0061,0,0,1.915,1.9214,1.9254,1.9364,1.9418,1.9486,1.9488,1.956,1.9612,1.9645,1.9734,1.9779,1.9857,1.9949,1.9992,1.9988,2.012,2.0089,2.0091,2.0097,2.0148,2.0156,2.0163,2.0064,2.0064,2.0063,0,0,1.9206,1.9262,1.9331,1.9385,1.9466,1.9509,1.9526,1.9613,1.9644,1.9734,1.976,1.9822,1.9944,1.9999,2.0042,2.0119,2.0135,2.014,2.0161,2.021,2.0217,2.0224,2.025,2.0259,2.0147,2.0147,2.0147,0,1.921,1.9315,1.9363,1.9435,1.9482,1.9516,1.9586,1.9636,1.9736,1.9768,1.9761,1.9915,1.997,2.0074,2.0093,2.0127,2.0147,2.0129,2.0213,2.022,2.0226,2.0252,2.0262,2.0147,2.0147,2.0147,2.0147,0,1.9316,1.9388,1.9434,1.953,1.9582,1.9652,1.9711,1.9758,1.9783,1.9827,1.9918,1.9985,2.0069,2.0096,2.0122,2.0204,2.0199,2.0202,2.0189,2.0234,2.0259,2.0269,2.0147,2.0147,2.0147,2.0147,0,0,1.936,1.9482,1.9497,1.9541,1.9634,1.969,1.9762,1.9844,1.9883,1.9952,2.0012,2.0115,2.0118,2.0168,2.0199,2.0243,2.0298,2.0241,2.0243,2.0248,2.0392,2.0389,2.0399,2.031,2.0312,2.0313,2.0385,0,1.9427,1.9556,1.9601,1.9707,1.9774,1.9807,1.987,1.9933,1.9975,2.0038,2.0085,2.0157,2.0156,2.0186,2.0231,2.0282,2.0327,2.0277,2.0366,2.0368,2.0344,2.0413,2.0409,2.0474,2.0396,2.0397,2.0399,0,1.9522,1.9591,1.9704,1.9788,1.9817,1.9873,1.9951,2.0011,2.0084,2.0112,2.0166,2.0195,2.0271,2.0254,2.0358,2.0323,2.0362,2.0393,2.0396,2.0406,2.0385,2.0423,2.0496,2.0505,2.0415,2.0413,2.0412,0,1.9541,1.9663,1.9746,1.9782,1.9883,1.992,1.9964,2.0035,2.0081,2.015,2.0181,2.0257,2.0299,2.0358,2.0406,2.039,2.0506,2.0493,2.053,2.0529,2.0553,2.055,2.0632,2.0579,2.0579,2.0579,2.0578,0,1.961,1.9678,1.9756,1.9807,1.9883,1.9935,2.0009,2.0054,2.0117,2.0177,2.0211,2.0266,2.0327,2.039,2.0429,2.0509,2.0528,2.0552,2.0561,2.0548,2.0545,2.0574,2.057,2.0581,2.0581,2.058,2.058,0,1.9644,1.97,1.9792,1.988,1.9903,1.9955,2.003,2.008,2.0125,2.02,2.0221,2.029,2.0366,2.0421,2.0519,2.0545,2.063,2.064,2.0606,2.061,2.0644,2.0639,2.0746,2.0762,2.0699,2.07,2.07,0,1.9684,1.9737,1.983,1.9873,1.9916,1.9985,2.0032,2.0085,2.0133,2.022,2.0259,2.0338,2.0404,2.0524,2.0583,2.0658,2.0669,2.0701,2.068,2.0666,2.0668,2.0664,2.0669,2.0704,2.0704,2.0704,2.0705,0,1.9749,1.9774,1.9841,1.9919,1.9975,2.0038,2.0101,2.0134,2.0199,2.0251,2.0329,2.038,2.0481,2.0558,2.0639,2.0683,2.0704,2.0711,2.0723,2.071,2.0688,2.07,2.0613,2.0708,2.0708,2.0707,2.0707,2.0707,1.9787,1.9835,1.9908,1.9982,2.0036,2.0094,2.0146,2.0196,2.0263,2.0349,2.0376,2.0457,2.0528,2.0639,2.0684,2.0748,2.0746,2.0764,2.0769,2.0772,2.0771,2.0679,2.0763,2.0763,2.0763,2.0763,2.0763,0,1.9853,1.9901,1.9969,2.0057,2.0115,2.0131,2.0202,2.0249,2.032,2.0385,2.0449,2.0538,2.0614,2.0678,2.0756,2.0795,2.0806,2.0813,2.081,2.082,2.0769,2.075,2.0803,2.0803,2.0803,2.0803,2.0803,2.0803,1.9893,1.9975,2.0009,2.0117,2.0166,2.0246,2.0285,2.0339,2.0391,2.0489,2.0552,2.0594,2.0659,2.0741,2.0811,2.0828,2.0855,2.0859,2.0878,2.0829,2.0824,2.0819,2.0802,2.0865,2.0865,2.0924,2.0925,2.0925]}]]